04/04/2011,00:00:08,   0.0,  0.0,  186, +5.6,  79.7,    0.2,   +8.7,   +9.5,   +4.1,+1100.00,F6
04/04/2011,00:00:34,   0.0,  0.0,  211, +5.6,  79.8,    0.2,   +8.6,   +9.6,   +4.1,+1100.00,EB
04/04/2011,00:00:52,   0.0,  0.0,  198, +5.7,  79.9,    0.2,   +8.6,   +9.6,   +4.0,+1100.00,FA
04/04/2011,00:01:11,   0.0,  0.0,  215, +5.6,  79.9,    0.0,   +8.6,   +9.6,   +4.0,+1100.00,E9
04/04/2011,00:01:29,   0.0,  0.0,  185, +5.6,  80.0,    0.2,   +8.6,   +9.5,   +4.1,+1100.00,E9
04/04/2011,00:01:54,   0.0,  0.0,  204, +5.6,  80.0,    0.4,   +8.6,   +9.6,   +4.0,+1100.00,E1
04/04/2011,00:02:12,   0.0,  0.0,  226, +5.6,  80.0,    0.4,   +8.6,   +9.6,   +4.0,+1100.00,E0
04/04/2011,00:02:30,   0.0,  0.0,  199, +5.6,  79.9,    0.2,   +8.6,   +9.6,   +4.1,+1100.00,F9
04/04/2011,00:02:48,   0.0,  0.0,  201, +5.6,  79.9,    0.4,   +8.5,   +9.6,   +4.0,+1100.00,F2
04/04/2011,00:03:14,   0.0,  0.0,  183, +5.6,  80.1,    0.3,   +8.6,   +9.6,   +4.0,+1100.00,E5
04/04/2011,00:03:32,   0.0,  0.0,  211, +5.6,  80.1,    0.3,   +8.6,   +9.6,   +4.0,+1100.00,DD
04/04/2011,00:03:50,   0.0,  0.0,  209, +5.6,  80.2,    0.2,   +8.6,   +9.6,   +4.1,+1100.00,E5
04/04/2011,00:04:15,   0.0,  0.0,  206, +5.6,  80.2,    0.4,   +8.6,   +9.5,   +4.0,+1100.00,E4
04/04/2011,00:04:33,   0.0,  0.0,  231, +5.6,  80.2,    0.3,   +8.7,   +9.5,   +4.1,+1100.00,E3
04/04/2011,00:04:51,   0.0,  0.0,  200, +5.6,  80.1,    0.2,   +8.6,   +9.6,   +4.0,+1100.00,DC
04/04/2011,00:05:09,   0.0,  0.0,  193, +5.6,  80.1,    0.2,   +8.5,   +9.7,   +4.0,+1100.00,EB
04/04/2011,00:05:35,   0.0,  0.0,  190, +5.6,  80.2,    0.3,   +8.6,   +9.6,   +4.0,+1100.00,E9
04/04/2011,00:05:53,   0.0,  0.0,  206, +5.6,  80.3,    0.4,   +8.6,   +9.6,   +4.0,+1100.00,E9
04/04/2011,00:06:11,   0.0,  0.0,  210, +5.6,  80.3,    0.3,   +8.5,   +9.6,   +4.0,+1100.00,DD
04/04/2011,00:06:29,   0.0,  0.0,  193, +5.6,  80.3,    0.1,   +8.6,   +9.6,   +4.0,+1100.00,EF
04/04/2011,00:06:55,   0.0,  0.0,  228, +5.6,  80.3,    0.4,   +8.5,   +9.6,   +4.0,+1100.00,EF
04/04/2011,00:07:13,   0.0,  0.0,  176, +5.6,  80.4,    0.1,   +8.6,   +9.6,   +4.0,+1100.00,EB
04/04/2011,00:07:31,   0.0,  0.0,  200, +5.5,  80.4,    0.2,   +8.5,   +9.6,   +4.0,+1100.00,DE
04/04/2011,00:07:49,   0.0,  0.0,  217, +5.6,  80.4,    0.4,   +8.5,   +9.6,   +4.0,+1100.00,F2
04/04/2011,00:08:15,   0.0,  0.0,  213, +5.5,  80.3,    0.2,   +8.6,   +9.5,   +4.0,+1100.00,E4
04/04/2011,00:08:33,   0.0,  0.0,  185, +5.5,  80.3,    0.2,   +8.6,   +9.6,   +4.0,+1100.00,ED
04/04/2011,00:08:51,   0.0,  0.0,  214, +5.5,  80.3,    0.4,   +8.6,   +9.6,   +4.0,+1100.00,E8
04/04/2011,00:09:09,   0.0,  0.0,  202, +5.5,  80.3,    0.2,   +8.6,   +9.6,   +4.0,+1100.00,E7
04/04/2011,00:09:35,   0.0,  0.0,  194, +5.5,  80.4,    0.3,   +8.6,   +9.6,   +4.0,+1100.00,F2
04/04/2011,00:09:53,   0.0,  0.0,  200, +5.5,  80.4,    0.1,   +8.6,   +9.6,   +4.0,+1100.00,E4
04/04/2011,00:10:11,   0.0,  0.0,  168, +5.5,  80.5,    0.2,   +8.5,   +9.7,   +3.9,+1100.00,ED
04/04/2011,00:10:29,   0.0,  0.0,  213, +5.5,  80.6,    0.4,   +8.6,   +9.6,   +4.0,+1100.00,E8
04/04/2011,00:10:55,   0.0,  0.0,  229, +5.5,  80.6,    0.3,   +8.6,   +9.6,   +4.0,+1100.00,ED
04/04/2011,00:11:13,   0.0,  0.0,  214, +5.5,  80.6,    0.4,   +8.6,   +9.6,   +4.0,+1100.00,E3
04/04/2011,00:11:31,   0.0,  0.0,  202, +5.5,  80.6,    0.3,   +8.6,   +9.6,   +4.0,+1100.00,DF
04/04/2011,00:11:48,   0.0,  0.0,  186, +5.5,  80.6,    0.3,   +8.6,   +9.6,   +4.0,+1100.00,F2
04/04/2011,00:12:14,   0.0,  0.0,  212, +5.5,  80.8,    0.3,   +8.6,   +9.6,   +3.9,+1100.00,EC
04/04/2011,00:12:32,   0.0,  0.0,  229, +5.5,  80.9,    0.3,   +8.6,   +9.5,   +4.0,+1100.00,EC
04/04/2011,00:12:50,   0.0,  0.0,  194, +5.5,  80.9,    0.3,   +8.6,   +9.6,   +4.0,+1100.00,EE
04/04/2011,00:13:08,   0.0,  0.0,  218, +5.5,  80.9,    0.1,   +8.6,   +9.6,   +3.9,+1100.00,F5
04/04/2011,00:13:34,   0.0,  0.0,  222, +5.5,  81.0,    0.1,   +8.7,   +9.6,   +3.9,+1100.00,E8
04/04/2011,00:13:52,   0.0,  0.0,  203, +5.5,  81.0,    0.2,   +8.6,   +9.6,   +3.9,+1100.00,E7
04/04/2011,00:14:10,   0.0,  0.0,  202, +5.5,  81.1,    0.4,   +8.6,   +9.6,   +3.9,+1100.00,E4
04/04/2011,00:14:28,   0.0,  0.0,  229, +5.5,  81.2,    0.4,   +8.7,   +9.5,   +4.0,+1100.00,EF
04/04/2011,00:14:54,   0.0,  0.0,  225, +5.5,  81.3,    0.2,   +8.6,   +9.6,   +3.9,+1100.00,F1
04/04/2011,00:15:12,   0.0,  0.0,  235, +5.5,  81.2,    0.2,   +8.6,   +9.5,   +3.9,+1100.00,EB
04/04/2011,00:15:30,   0.0,  0.0,  235, +5.4,  81.1,    0.4,   +8.6,   +9.6,   +3.9,+1100.00,EC
04/04/2011,00:15:48,   0.0,  0.0,  200, +5.5,  81.0,    0.4,   +8.5,   +9.6,   +3.9,+1100.00,EC
04/04/2011,00:16:14,   0.0,  0.0,  200, +5.4,  81.1,    0.2,   +8.6,   +9.6,   +3.9,+1100.00,E5
04/04/2011,00:16:32,   0.0,  0.0,  180, +5.4,  81.3,    0.3,   +8.6,   +9.6,   +3.9,+1100.00,EF
04/04/2011,00:16:50,   0.0,  0.0,  229, +5.4,  81.3,    0.3,   +8.6,   +9.6,   +3.9,+1100.00,F3
04/04/2011,00:17:15,   0.0,  0.0,  204, +5.4,  81.2,    0.4,   +8.6,   +9.6,   +3.9,+1100.00,EE
04/04/2011,00:17:33,   0.0,  0.0,  201, +5.4,  81.4,    0.1,   +8.6,   +9.6,   +3.9,+1100.00,EA
04/04/2011,00:17:51,   0.0,  0.0,  200, +5.4,  81.4,    0.1,   +8.5,   +9.6,   +3.9,+1100.00,E8
04/04/2011,00:18:09,   0.0,  0.0,  154, +5.4,  81.5,    0.3,   +8.6,   +9.6,   +3.9,+1100.00,F8
04/04/2011,00:18:35,   0.0,  0.0,  188, +5.4,  81.6,    0.0,   +8.6,   +9.6,   +3.9,+1100.00,FC
04/04/2011,00:18:53,   0.0,  0.0,  187, +5.4,  81.6,    0.2,   +8.6,   +9.5,   +3.9,+1100.00,FC
04/04/2011,00:19:11,   0.0,  0.0,  207, +5.4,  81.6,    0.2,   +8.6,   +9.6,   +3.9,+1100.00,F1
04/04/2011,00:19:29,   0.0,  0.0,  194, +5.4,  81.7,    0.1,   +8.6,   +9.6,   +3.9,+1100.00,FF
04/04/2011,00:19:55,   0.0,  0.0,  205, +5.4,  81.6,    0.4,   +8.6,   +9.5,   +3.9,+1100.00,F8
04/04/2011,00:20:13,   0.0,  0.0,  224, +5.4,  81.6,    0.2,   +8.6,   +9.6,   +3.9,+1100.00,EA
04/04/2011,00:20:31,   0.0,  0.0,  199, +5.4,  81.5,    0.2,   +8.6,   +9.6,   +3.9,+1100.00,F4
04/04/2011,00:20:49,   0.0,  0.0,  212, +5.4,  81.7,    0.1,   +8.5,   +9.7,   +3.8,+1100.00,EF
04/04/2011,00:21:15,   0.0,  0.0,  204, +5.4,  81.8,    0.1,   +8.6,   +9.6,   +3.8,+1100.00,EB
04/04/2011,00:21:33,   0.0,  0.0,  245, +5.4,  81.7,    0.2,   +8.7,   +9.5,   +3.9,+1100.00,F1
04/04/2011,00:21:51,   0.0,  0.0,  214, +5.4,  81.6,    0.4,   +8.5,   +9.6,   +3.9,+1100.00,ED
04/04/2011,00:22:09,   0.0,  0.0,  190, +5.4,  81.6,    0.4,   +8.6,   +9.6,   +3.9,+1100.00,F5
04/04/2011,00:22:35,   0.0,  0.0,  204, +5.4,  81.5,    0.2,   +8.6,   +9.6,   +3.9,+1100.00,ED
04/04/2011,00:22:53,   0.0,  0.0,  194, +5.3,  81.6,    0.2,   +8.5,   +9.6,   +3.9,+1100.00,F4
04/04/2011,00:23:11,   0.0,  0.0,  196, +5.3,  81.6,    0.3,   +8.6,   +9.6,   +3.9,+1100.00,F3
04/04/2011,00:23:29,   0.0,  0.0,  204, +5.3,  81.7,    0.5,   +8.6,   +9.5,   +3.9,+1100.00,F4
04/04/2011,00:23:55,   0.0,  0.0,  214, +5.3,  81.9,    0.2,   +8.5,   +9.6,   +3.8,+1100.00,F2
04/04/2011,00:24:13,   0.0,  0.0,  191, +5.4,  82.0,    0.1,   +8.5,   +9.6,   +3.8,+1100.00,E9
04/04/2011,00:24:31,   0.0,  0.0,  198, +5.4,  82.0,    0.4,   +8.5,   +9.6,   +3.8,+1100.00,F3
04/04/2011,00:24:49,   0.0,  0.0,  229, +5.4,  82.0,    0.4,   +8.5,   +9.6,   +3.8,+1100.00,F7
04/04/2011,00:25:15,   0.0,  0.0,  197, +5.3,  81.9,    0.2,   +8.6,   +9.6,   +3.8,+1100.00,FB
04/04/2011,00:25:33,   0.0,  0.0,  206, +5.3,  81.9,    0.2,   +8.6,   +9.6,   +3.9,+1100.00,F3
04/04/2011,00:25:51,   0.0,  0.0,  197, +5.4,  82.0,    0.4,   +8.6,   +9.5,   +3.9,+1100.00,F6
04/04/2011,00:26:09,   0.0,  0.0,  220, +5.3,  82.0,    0.4,   +8.5,   +9.6,   +3.9,+1100.00,EC
04/04/2011,00:26:35,   0.0,  0.0,  217, +5.3,  82.0,    0.1,   +8.7,   +9.5,   +3.9,+1100.00,EF
04/04/2011,00:26:53,   0.0,  0.0,  194, +5.3,  81.9,    0.2,   +8.7,   +9.5,   +4.0,+1100.00,F4
04/04/2011,00:27:11,   0.0,  0.0,  202, +5.3,  81.9,    0.1,   +8.5,   +9.7,   +3.9,+1100.00,EC
04/04/2011,00:27:29,   0.0,  0.0,  232, +5.3,  82.0,    0.1,   +8.5,   +9.7,   +3.9,+1100.00,F0
04/04/2011,00:27:55,   0.0,  0.0,  191, +5.3,  82.1,    0.1,   +8.5,   +9.6,   +3.8,+1100.00,F2
04/04/2011,00:28:13,   0.0,  0.0,  188, +5.3,  82.1,    0.2,   +8.5,   +9.6,   +3.9,+1100.00,F5
04/04/2011,00:28:31,   0.0,  0.0,  204, +5.3,  82.1,    0.3,   +8.5,   +9.6,   +3.8,+1100.00,EA
04/04/2011,00:28:49,   0.0,  0.0,  203, +5.3,  82.0,    0.3,   +8.7,   +9.5,   +3.9,+1100.00,F3
04/04/2011,00:29:15,   0.0,  0.0,  207, +5.3,  82.0,    0.2,   +8.6,   +9.6,   +3.9,+1100.00,F0
04/04/2011,00:29:33,   0.0,  0.0,  200, +5.3,  82.1,    0.2,   +8.6,   +9.6,   +3.9,+1100.00,EA
04/04/2011,00:29:51,   0.0,  0.0,  196, +5.3,  82.1,    0.4,   +8.6,   +9.6,   +3.9,+1100.00,FA
04/04/2011,00:30:09,   0.0,  0.0,  196, +5.3,  82.1,    0.2,   +8.7,   +9.5,   +4.0,+1100.00,EB
04/04/2011,00:30:35,   0.0,  0.0,  208, +5.3,  82.0,    0.1,   +8.5,   +9.6,   +3.8,+1100.00,E8
04/04/2011,00:30:53,   0.0,  0.0,  195, +5.3,  82.0,    0.2,   +8.6,   +9.6,   +3.9,+1100.00,F0
04/04/2011,00:31:11,   0.0,  0.0,  204, +5.3,  82.1,    0.5,   +8.6,   +9.6,   +3.9,+1100.00,E6
04/04/2011,00:31:29,   0.0,  0.0,  240, +5.3,  82.1,    0.1,   +8.5,   +9.6,   +3.9,+1100.00,EA
04/04/2011,00:31:55,   0.0,  0.0,  198, +5.3,  82.2,    0.2,   +8.6,   +9.6,   +3.9,+1100.00,F8
04/04/2011,00:32:13,   0.0,  0.0,  201, +5.3,  82.2,    0.1,   +8.6,   +9.5,   +3.9,+1100.00,E2
04/04/2011,00:32:31,   0.0,  0.0,  203, +5.3,  82.1,    0.4,   +8.6,   +9.6,   +3.9,+1100.00,E7
04/04/2011,00:32:49,   0.0,  0.0,  180, +5.3,  82.2,    0.4,   +8.6,   +9.6,   +3.9,+1100.00,F5
04/04/2011,00:33:15,   0.0,  0.0,  213, +5.3,  82.3,    0.4,   +8.6,   +9.6,   +3.9,+1100.00,ED
04/04/2011,00:33:33,   0.0,  0.0,  208, +5.3,  82.3,    0.1,   +8.6,   +9.5,   +3.9,+1100.00,ED
04/04/2011,00:33:51,   0.0,  0.0,  208, +5.3,  82.3,    0.4,   +8.6,   +9.6,   +3.9,+1100.00,F1
04/04/2011,00:34:09,   0.0,  0.0,  189, +5.3,  82.4,    0.4,   +8.6,   +9.5,   +3.9,+1100.00,FD
04/04/2011,00:34:35,   0.0,  0.0,  234, +5.3,  82.3,    0.2,   +8.6,   +9.6,   +3.8,+1100.00,F0
04/04/2011,00:34:53,   0.0,  0.0,  205, +5.3,  82.2,    0.2,   +8.5,   +9.6,   +3.9,+1100.00,ED
04/04/2011,00:35:11,   0.0,  0.0,  196, +5.3,  82.3,    0.3,   +8.7,   +9.5,   +3.9,+1100.00,F4
04/04/2011,00:35:29,   0.0,  0.0,  194, +5.3,  82.3,    0.4,   +8.6,   +9.5,   +3.9,+1100.00,FB
04/04/2011,00:35:55,   0.0,  0.0,  205, +5.3,  82.4,    0.2,   +8.5,   +9.6,   +3.8,+1100.00,F1
04/04/2011,00:36:13,   0.0,  0.0,  158, +5.3,  82.3,    0.2,   +8.5,   +9.7,   +3.9,+1100.00,F4
04/04/2011,00:36:31,   0.0,  0.0,  178, +5.3,  82.4,    0.4,   +8.7,   +9.5,   +4.0,+1100.00,F1
04/04/2011,00:36:49,   0.0,  0.0,  224, +5.3,  82.3,    0.4,   +8.7,   +9.5,   +4.0,+1100.00,F1
04/04/2011,00:37:15,   0.0,  0.0,  219, +5.3,  82.3,    0.2,   +8.6,   +9.6,   +3.9,+1100.00,F5
04/04/2011,00:37:33,   0.0,  0.0,  167, +5.3,  82.3,    0.1,   +8.6,   +9.6,   +4.0,+1100.00,EE
04/04/2011,00:37:51,   0.0,  0.0,  166, +5.4,  82.3,    0.2,   +8.6,   +9.6,   +3.9,+1100.00,F7
04/04/2011,00:38:09,   0.0,  0.0,  194, +5.3,  82.4,    0.1,   +8.7,   +9.5,   +4.0,+1100.00,F3
04/04/2011,00:38:35,   0.0,  0.0,  203, +5.4,  82.3,    0.2,   +8.6,   +9.6,   +3.9,+1100.00,F2
04/04/2011,00:38:53,   0.0,  0.0,  200, +5.3,  82.3,    0.2,   +8.5,   +9.6,   +3.9,+1100.00,ED
04/04/2011,00:39:11,   0.0,  0.0,  197, +5.4,  82.3,    0.4,   +8.6,   +9.6,   +3.9,+1100.00,FB
04/04/2011,00:39:29,   0.0,  0.0,  190, +5.4,  82.3,    0.4,   +8.5,   +9.6,   +3.9,+1100.00,FC
04/04/2011,00:39:55,   0.0,  0.0,  193, +5.4,  82.3,    0.2,   +8.6,   +9.6,   +4.0,+1100.00,F5
04/04/2011,00:40:13,   0.0,  0.0,  186, +5.4,  82.3,    0.2,   +8.6,   +9.6,   +4.0,+1100.00,E9
04/04/2011,00:40:31,   0.0,  0.0,  198, +5.4,  82.3,    0.4,   +8.5,   +9.6,   +3.9,+1100.00,F5
04/04/2011,00:40:49,   0.0,  0.0,  192, +5.4,  82.2,    0.4,   +8.7,   +9.5,   +4.0,+1100.00,F0
04/04/2011,00:41:15,   0.0,  0.0,  214, +5.3,  82.2,    0.1,   +8.6,   +9.5,   +4.0,+1100.00,E0
04/04/2011,00:41:33,   0.0,  0.0,  216, +5.4,  82.2,    0.2,   +8.6,   +9.6,   +4.0,+1100.00,E5
04/04/2011,00:41:51,   0.0,  0.0,  194, +5.4,  82.2,    0.4,   +8.6,   +9.6,   +4.0,+1100.00,EC
04/04/2011,00:42:09,   0.0,  0.0,  178, +5.3,  82.2,    0.3,   +8.6,   +9.6,   +4.0,+1100.00,F0
04/04/2011,00:42:35,   0.0,  0.0,  191, +5.4,  82.1,    0.3,   +8.6,   +9.6,   +4.0,+1100.00,EA
04/04/2011,00:42:53,   0.0,  0.0,  171, +5.4,  82.1,    0.2,   +8.5,   +9.6,   +4.0,+1100.00,E6
04/04/2011,00:43:11,   0.0,  0.0,  206, +5.4,  82.1,    0.4,   +8.5,   +9.6,   +4.0,+1100.00,E2
04/04/2011,00:43:29,   0.0,  0.0,  190, +5.4,  82.1,    0.5,   +8.5,   +9.6,   +4.0,+1100.00,EE
04/04/2011,00:43:55,   0.0,  0.0,  197, +5.4,  82.3,    0.2,   +8.6,   +9.5,   +4.0,+1100.00,F3
04/04/2011,00:44:13,   0.0,  0.0,  173, +5.4,  82.3,    0.2,   +8.5,   +9.6,   +4.0,+1100.00,E8
04/04/2011,00:44:31,   0.0,  0.0,  195, +5.4,  82.3,    0.4,   +8.6,   +9.5,   +4.0,+1100.00,EE
04/04/2011,00:44:49,   0.0,  0.0,  185, +5.4,  82.3,    0.4,   +8.5,   +9.7,   +4.0,+1100.00,F7
04/04/2011,00:45:15,   0.0,  0.0,  202, +5.4,  82.2,    0.2,   +8.7,   +9.5,   +4.0,+1100.00,E4
04/04/2011,00:45:33,   0.0,  0.0,  199, +5.4,  82.2,    0.2,   +8.6,   +9.5,   +4.1,+1100.00,F3
04/04/2011,00:45:51,   0.0,  0.0,  195, +5.4,  82.1,    0.1,   +8.6,   +9.6,   +4.1,+1100.00,EE
04/04/2011,00:46:09,   0.0,  0.0,  201, +5.4,  82.1,    0.2,   +8.6,   +9.6,   +4.1,+1100.00,E7
04/04/2011,00:46:35,   0.0,  0.0,  193, +5.4,  82.1,    0.2,   +8.7,   +9.6,   +4.1,+1100.00,F1
04/04/2011,00:46:53,   0.0,  0.0,  216, +5.4,  82.1,    0.2,   +8.5,   +9.6,   +4.1,+1100.00,EB
04/04/2011,00:47:11,   0.0,  0.0,  178, +5.4,  82.1,    0.4,   +8.7,   +9.5,   +4.1,+1100.00,F0
04/04/2011,00:47:29,   0.0,  0.0,  206, +5.4,  82.1,    0.4,   +8.7,   +9.5,   +4.1,+1100.00,F1
04/04/2011,00:47:55,   0.0,  0.0,  201, +5.4,  82.1,    0.1,   +8.7,   +9.5,   +4.1,+1100.00,E8
04/04/2011,00:48:13,   0.0,  0.0,  184, +5.3,  82.1,    0.2,   +8.6,   +9.5,   +4.1,+1100.00,EC
04/04/2011,00:48:31,   0.0,  0.0,  211, +5.3,  82.1,    0.4,   +8.5,   +9.6,   +4.1,+1100.00,E5
04/04/2011,00:48:49,   0.0,  0.0,  230, +5.4,  82.1,    0.5,   +8.5,   +9.6,   +4.1,+1100.00,F1
04/04/2011,00:49:15,   0.0,  0.0,  211, +5.3,  82.3,    0.3,   +8.6,   +9.5,   +4.0,+1100.00,E8
04/04/2011,00:49:33,   0.0,  0.0,  187, +5.3,  82.3,    0.1,   +8.6,   +9.5,   +4.1,+1100.00,F3
04/04/2011,00:49:51,   0.0,  0.0,  218, +5.3,  82.2,    0.4,   +8.6,   +9.5,   +4.1,+1100.00,F0
04/04/2011,00:50:09,   0.0,  0.0,  177, +5.3,  82.2,    0.2,   +8.5,   +9.6,   +4.1,+1100.00,ED
04/04/2011,00:50:35,   0.0,  0.0,  205, +5.3,  82.2,    0.3,   +8.6,   +9.6,   +4.1,+1100.00,E6
04/04/2011,00:50:53,   0.0,  0.0,  232, +5.3,  82.2,    0.1,   +8.6,   +9.6,   +4.1,+1100.00,E4
04/04/2011,00:51:11,   0.0,  0.0,  218, +5.3,  82.3,    0.4,   +8.6,   +9.5,   +4.1,+1100.00,E6
04/04/2011,00:51:29,   0.0,  0.0,  202, +5.3,  82.2,    0.4,   +8.6,   +9.5,   +4.1,+1100.00,E7
04/04/2011,00:51:55,   0.0,  0.0,  224, +5.3,  82.2,    0.1,   +8.6,   +9.6,   +4.1,+1100.00,E8
04/04/2011,00:52:13,   0.0,  0.0,  198, +5.3,  82.1,    0.2,   +8.7,   +9.5,   +4.2,+1100.00,EE
04/04/2011,00:52:31,   0.0,  0.0,  224, +5.3,  82.2,    0.4,   +8.6,   +9.6,   +4.1,+1100.00,E6
04/04/2011,00:52:49,   0.0,  0.0,  204, +5.3,  82.4,    0.4,   +8.6,   +9.5,   +4.1,+1100.00,EE
04/04/2011,00:53:15,   0.0,  0.0,  218, +5.3,  82.5,    0.2,   +8.6,   +9.6,   +4.1,+1100.00,ED
04/04/2011,00:53:33,   0.0,  0.0,  228, +5.3,  82.5,    0.2,   +8.6,   +9.5,   +4.2,+1100.00,EE
04/04/2011,00:53:51,   0.0,  0.0,  190, +5.3,  82.5,    0.2,   +8.6,   +9.5,   +4.2,+1100.00,EC
04/04/2011,00:54:09,   0.0,  0.0,  193, +5.3,  82.5,    0.1,   +8.6,   +9.6,   +4.1,+1100.00,F2
04/04/2011,00:54:35,   0.0,  0.0,  198, +5.3,  82.5,    0.1,   +8.6,   +9.6,   +4.1,+1100.00,F6
04/04/2011,00:54:53,   0.0,  0.0,  184, +5.3,  82.6,    0.2,   +8.6,   +9.5,   +4.2,+1100.00,F3
04/04/2011,00:55:11,   0.0,  0.0,  220, +5.3,  82.6,    0.1,   +8.6,   +9.6,   +4.1,+1100.00,E4
04/04/2011,00:55:29,   0.0,  0.0,  214, +5.3,  82.7,    0.1,   +8.6,   +9.5,   +4.2,+1100.00,F1
04/04/2011,00:55:55,   0.0,  0.0,  193, +5.3,  82.8,    0.2,   +8.6,   +9.6,   +4.1,+1100.00,F8
04/04/2011,00:56:13,   0.0,  0.0,  226, +5.3,  82.8,    0.2,   +8.6,   +9.5,   +4.2,+1100.00,F0
04/04/2011,00:56:31,   0.0,  0.0,  197, +5.3,  82.8,    0.4,   +8.6,   +9.6,   +4.2,+1100.00,FA
04/04/2011,00:56:49,   0.0,  0.0,  212, +5.3,  82.8,    0.4,   +8.6,   +9.6,   +4.2,+1100.00,F7
04/04/2011,00:57:15,   0.0,  0.0,  206, +5.3,  82.9,    0.2,   +8.7,   +9.5,   +4.2,+1100.00,F3
04/04/2011,00:57:33,   0.0,  0.0,  193, +5.3,  82.9,    0.2,   +8.7,   +9.5,   +4.2,+1100.00,F8
04/04/2011,00:57:51,   0.0,  0.0,  211, +5.3,  83.0,    0.5,   +8.6,   +9.6,   +4.2,+1100.00,EA
04/04/2011,00:58:09,   0.0,  0.0,  197, +5.3,  83.0,    0.4,   +8.5,   +9.6,   +4.2,+1100.00,F9
04/04/2011,00:58:35,   0.0,  0.0,  244, +5.3,  82.9,    0.4,   +8.6,   +9.5,   +4.2,+1100.00,F9
04/04/2011,00:58:53,   0.0,  0.0,  218, +5.3,  83.0,    0.1,   +8.6,   +9.5,   +4.2,+1100.00,EF
04/04/2011,00:59:11,   0.0,  0.0,  208, +5.3,  83.0,    0.3,   +8.5,   +9.6,   +4.2,+1100.00,EB
04/04/2011,00:59:29,   0.0,  0.0,  231, +5.3,  83.0,    0.4,   +8.6,   +9.5,   +4.2,+1100.00,F1
04/04/2011,00:59:55,   0.0,  0.0,  231, +5.3,  83.0,    0.2,   +8.7,   +9.5,   +4.2,+1100.00,EF
04/04/2011,01:00:13,   0.0,  0.0,  174, +5.3,  83.0,    0.1,   +8.6,   +9.5,   +4.3,+1100.00,E1
04/04/2011,01:00:31,   0.0,  0.0,  178, +5.3,  83.1,    0.4,   +8.6,   +9.5,   +4.3,+1100.00,E9
04/04/2011,01:00:49,   0.0,  0.0,  239, +5.3,  83.1,    0.4,   +8.6,   +9.5,   +4.3,+1100.00,F0
04/04/2011,01:01:15,   0.0,  0.0,  186, +5.3,  83.1,    0.2,   +8.6,   +9.6,   +4.2,+1100.00,E9
04/04/2011,01:01:33,   0.0,  0.0,  207, +5.3,  83.1,    0.2,   +8.5,   +9.6,   +4.2,+1100.00,E2
04/04/2011,01:01:51,   0.0,  0.0,  197, +5.3,  83.1,    0.4,   +8.6,   +9.6,   +4.2,+1100.00,ED
04/04/2011,01:02:09,   0.0,  0.0,  181, +5.3,  83.2,    0.4,   +8.6,   +9.6,   +4.3,+1100.00,EC
04/04/2011,01:02:35,   0.0,  0.0,  212, +5.3,  83.1,    0.1,   +8.6,   +9.6,   +4.3,+1100.00,E2
04/04/2011,01:02:53,   0.0,  0.0,  195, +5.4,  83.1,    0.3,   +8.6,   +9.6,   +4.3,+1100.00,EF
04/04/2011,01:03:11,   0.0,  0.0,  212, +5.4,  83.1,    0.1,   +8.6,   +9.5,   +4.3,+1100.00,DD
04/04/2011,01:03:29,   0.0,  0.0,  184, +5.4,  83.1,    0.1,   +8.6,   +9.6,   +4.3,+1100.00,EF
04/04/2011,01:03:55,   0.0,  0.0,  213, +5.4,  83.0,    0.1,   +8.6,   +9.6,   +4.3,+1100.00,E6
04/04/2011,01:04:13,   0.0,  0.0,  189, +5.4,  83.0,    0.2,   +8.5,   +9.6,   +4.4,+1100.00,EE
04/04/2011,01:04:31,   0.0,  0.0,  222, +5.4,  82.9,    0.4,   +8.6,   +9.6,   +4.4,+1100.00,ED
04/04/2011,01:04:49,   0.0,  0.0,  187, +5.4,  82.9,    0.4,   +8.6,   +9.5,   +4.4,+1100.00,FF
04/04/2011,01:05:15,   0.0,  0.0,  235, +5.4,  82.9,    0.1,   +8.6,   +9.5,   +4.4,+1100.00,F0
04/04/2011,01:05:33,   0.0,  0.0,  172, +5.4,  82.8,    0.2,   +8.6,   +9.5,   +4.4,+1100.00,F0
04/04/2011,01:05:51,   0.0,  0.0,  203, +5.4,  82.8,    0.4,   +8.6,   +9.5,   +4.4,+1100.00,ED
04/04/2011,01:06:09,   0.0,  0.0,  191, +5.4,  82.8,    0.4,   +8.6,   +9.6,   +4.4,+1100.00,F8
04/04/2011,01:06:35,   0.0,  0.0,  212, +5.4,  82.8,    0.3,   +8.6,   +9.5,   +4.4,+1100.00,EF
04/04/2011,01:06:53,   0.0,  0.0,  196, +5.4,  82.7,    0.0,   +8.6,   +9.6,   +4.4,+1100.00,F7
04/04/2011,01:07:11,   0.0,  0.0,  184, +5.4,  82.7,    0.5,   +8.6,   +9.5,   +4.4,+1100.00,F3
04/04/2011,01:07:29,   0.0,  0.0,  239, +5.4,  82.8,    0.4,   +8.6,   +9.5,   +4.4,+1100.00,FD
04/04/2011,01:07:55,   0.0,  0.0,  199, +5.4,  82.7,    0.2,   +8.6,   +9.6,   +4.4,+1100.00,FF
04/04/2011,01:08:13,   0.0,  0.0,  200, +5.4,  82.7,    0.2,   +8.6,   +9.6,   +4.5,+1100.00,EA
04/04/2011,01:08:31,   0.0,  0.0,  178, +5.4,  82.8,    0.4,   +8.5,   +9.6,   +4.4,+1100.00,F9
04/04/2011,01:08:49,   0.0,  0.0,  201, +5.4,  82.8,    0.4,   +8.6,   +9.5,   +4.5,+1100.00,F6
04/04/2011,01:09:15,   0.0,  0.0,  204, +5.4,  82.8,    0.1,   +8.6,   +9.6,   +4.5,+1100.00,F1
04/04/2011,01:09:33,   0.0,  0.0,  221, +5.4,  82.8,    0.2,   +8.5,   +9.6,   +4.5,+1100.00,F0
04/04/2011,01:09:51,   0.0,  0.0,  238, +5.4,  82.8,    0.1,   +8.6,   +9.5,   +4.6,+1100.00,F8
04/04/2011,01:10:09,   0.0,  0.0,  187, +5.4,  82.8,    0.2,   +8.6,   +9.6,   +4.5,+1100.00,F7
04/04/2011,01:10:35,   0.0,  0.0,  167, +5.4,  82.8,    0.1,   +8.6,   +9.6,   +4.5,+1100.00,F3
04/04/2011,01:10:53,   0.0,  0.0,  172, +5.4,  82.8,    0.0,   +8.6,   +9.5,   +4.6,+1100.00,EE
04/04/2011,01:11:11,   0.0,  0.0,  199, +5.4,  82.8,    0.4,   +8.7,   +9.5,   +4.6,+1100.00,F7
04/04/2011,01:11:29,   0.0,  0.0,  239, +5.4,  82.8,    0.4,   +8.6,   +9.6,   +4.6,+1100.00,FB
04/04/2011,01:11:55,   0.0,  0.0,  238, +5.4,  82.8,    0.2,   +8.6,   +9.6,   +4.6,+1100.00,F7
04/04/2011,01:12:13,   0.0,  0.0,  219, +5.4,  82.8,    0.4,   +8.5,   +9.6,   +4.6,+1100.00,F2
04/04/2011,01:12:31,   0.0,  0.0,  190, +5.4,  82.8,    0.5,   +8.6,   +9.5,   +4.7,+1100.00,F2
04/04/2011,01:12:48,   0.0,  0.0,  211, +5.5,  82.9,    0.6,   +8.6,   +9.5,   +4.7,+1100.00,F7
04/04/2011,01:13:14,   0.0,  0.0,  197, +5.4,  82.9,    0.4,   +8.6,   +9.6,   +4.7,+1100.00,FC
04/04/2011,01:13:32,   0.0,  0.0,  218, +5.4,  82.9,    0.4,   +8.5,   +9.6,   +4.6,+1100.00,F4
04/04/2011,01:13:50,   0.0,  0.0,  211, +5.4,  82.9,    0.2,   +8.6,   +9.6,   +4.7,+1100.00,ED
04/04/2011,01:14:08,   0.0,  0.0,  197, +5.5,  82.9,    0.0,   +8.6,   +9.6,   +4.7,+1100.00,FD
04/04/2011,01:14:34,   0.0,  0.0,  198, +5.4,  82.9,    0.1,   +8.6,   +9.5,   +4.7,+1100.00,FC
04/04/2011,01:14:52,   0.0,  0.0,  202, +5.5,  82.8,    0.2,   +8.6,   +9.5,   +4.7,+1100.00,EF
04/04/2011,01:15:10,   0.0,  0.0,  211, +5.5,  82.8,    0.2,   +8.7,   +9.5,   +4.8,+1100.00,EC
04/04/2011,01:15:28,   0.0,  0.0,  227, +5.4,  82.8,    0.4,   +8.5,   +9.6,   +4.7,+1100.00,FB
04/04/2011,01:15:54,   0.0,  0.0,  207, +5.5,  82.8,    0.2,   +8.7,   +9.5,   +4.8,+1100.00,F9
04/04/2011,01:16:12,   0.0,  0.0,  211, +5.5,  82.8,    0.4,   +8.6,   +9.5,   +4.8,+1100.00,F0
04/04/2011,01:16:30,   0.0,  0.0,  228, +5.5,  82.8,    0.3,   +8.7,   +9.4,   +4.8,+1100.00,F7
04/04/2011,01:16:55,   0.0,  0.0,  235, +5.5,  82.8,    0.4,   +8.7,   +9.5,   +4.8,+1100.00,FE
04/04/2011,01:17:13,   0.0,  0.0,  222, +5.5,  82.8,    0.4,   +8.6,   +9.6,   +4.7,+1100.00,F4
04/04/2011,01:17:31,   0.0,  0.0,  185, +5.5,  82.7,    0.2,   +8.6,   +9.5,   +4.8,+1100.00,F9
04/04/2011,01:17:49,   0.0,  0.0,  198, +5.5,  82.7,    0.4,   +8.5,   +9.6,   +4.8,+1100.00,08
04/04/2011,01:18:15,   0.0,  0.0,  229, +5.5,  82.7,    0.4,   +8.7,   +9.5,   +4.9,+1100.00,FF
04/04/2011,01:18:33,   0.0,  0.0,  174, +5.5,  82.7,    0.3,   +8.6,   +9.6,   +4.9,+1100.00,FD
04/04/2011,01:18:51,   0.0,  0.0,  173, +5.5,  82.7,    0.3,   +8.6,   +9.6,   +4.9,+1100.00,FC
04/04/2011,01:19:08,   0.0,  0.0,  194, +5.5,  82.6,    0.3,   +8.5,   +9.6,   +4.8,+1100.00,FF
04/04/2011,01:19:34,   0.0,  0.0,  214, +5.5,  82.6,    0.4,   +8.6,   +9.5,   +4.9,+1100.00,F9
04/04/2011,01:19:52,   0.0,  0.0,  191, +5.5,  82.6,    0.4,   +8.6,   +9.5,   +4.9,+1100.00,FD
04/04/2011,01:20:10,   0.0,  0.0,  212, +5.6,  82.6,    0.1,   +8.7,   +9.5,   +5.0,+1100.00,E0
04/04/2011,01:20:28,   0.0,  0.0,  199, +5.6,  82.6,    0.1,   +8.7,   +9.5,   +5.0,+1100.00,F7
04/04/2011,01:20:54,   0.0,  0.0,  220, +5.6,  82.6,    0.3,   +8.6,   +9.6,   +4.9,+1100.00,F1
04/04/2011,01:21:12,   0.0,  0.0,  216, +5.6,  82.5,    0.3,   +8.5,   +9.6,   +4.9,+1100.00,EF
04/04/2011,01:21:30,   0.0,  0.0,  202, +5.6,  82.6,    0.4,   +8.6,   +9.5,   +5.0,+1100.00,E4
04/04/2011,01:21:55,   0.0,  0.0,  190, +5.6,  82.4,    0.3,   +8.6,   +9.6,   +4.9,+1100.00,F7
04/04/2011,01:22:13,   0.0,  0.0,  188, +5.6,  82.4,    0.3,   +8.7,   +9.5,   +5.0,+1100.00,F1